Rome, NY

9:08 PM EDT on March 26, 2017 (GMT -0400)
Griffiss

Weather History for KRME - October, 2012

Change the Weather History Date:

Thursday, October 4, 2012

  Actual Average Record
Temperature  
Mean Temperature 64 °F -  
Max Temperature 71 °F 61 °F 73 °F (1983)
Min Temperature 54 °F 45 °F 30 °F (1996)
Degree Days  
Heating Degree Days 1    
Growing Degree Days 14 (Base 50)    
Moisture  
Dew Point 60 °F    
Average Humidity 91    
Maximum Humidity 100    
Minimum Humidity 59    
Precipitation  
Precipitation 0.00 in - - ()
Sea Level Pressure  
Sea Level Pressure 30.12 in    
Wind  
Wind Speed 1 mph (West)    
Max Wind Speed 8 mph    
Max Gust Speed -    
Visibility 7 miles    
Events Rain    
Averages and records for this station are not official NWS values.
T = Trace of Precipitation, MM = Missing Value Source: NWS Daily Summary

Daily Weather History Graph

Daily Weather History Graph

Search for Another Location

Airport or City:

Trip Planner

Search our weather history database for the weather conditions in past years. The results will help you decide how hot, cold, wet, or windy it might be!

Date:

Astronomy

Oct. 04, 2012 Rise Set
Actual Time 7:02 AM EDT 6:36 PM EDT
Civil Twilight 6:34 AM EDT 7:05 PM EDT
Nautical Twilight 6:01 AM EDT 7:37 PM EDT
Astronomical Twilight 5:28 AM EDT 8:11 PM EDT
Moon 9:03 PM EDT (10/4) 11:25 AM EDT (10/4)
Length of Visible Light 12h 30m
Length of Day
11h 33m
Waning Gibbous, 82% of the Moon is Illuminated
Oct 4
Waning Gibbous
Oct 8
Last Quarter
Oct 15
New
Oct 21
First Quarter
Oct 29
Full

Hourly Weather History & Observations

Time (EDT) Temp. Dew Point Humidity Pressure Visibility Wind Dir Wind Speed Gust Speed Precip Events Conditions
12:10 AM 64.9 °F 63.0 °F 93% 30.13 in 8.0 mi Calm Calm - N/A   Overcast
12:51 AM 64.4 °F 62.6 °F 94% 30.13 in 5.0 mi Calm Calm - N/A   Scattered Clouds
12:53 AM 64.0 °F 62.1 °F 93% 30.12 in 4.0 mi Calm Calm - N/A   Scattered Clouds
1:01 AM 63.0 °F 62.1 °F 97% 30.13 in 2.0 mi Calm Calm - N/A   Mostly Cloudy
1:13 AM 63.0 °F 62.1 °F 97% 30.13 in 5.0 mi Calm Calm - N/A   Mostly Cloudy
1:53 AM 63.0 °F 62.1 °F 97% 30.14 in 5.0 mi Calm Calm - N/A   Overcast
2:50 AM 62.6 °F 62.6 °F 100% 30.13 in 5.0 mi Calm Calm - N/A   Mostly Cloudy
2:53 AM 63.0 °F 62.1 °F 97% 30.13 in 5.0 mi Calm Calm - N/A   Mostly Cloudy
3:33 AM 64.0 °F 63.0 °F 96% 30.14 in 2.5 mi Calm Calm - N/A   Overcast
3:41 AM 63.0 °F 62.1 °F 97% 30.14 in 4.0 mi Calm Calm - N/A   Overcast
3:53 AM 63.0 °F 62.1 °F 97% 30.13 in 6.0 mi Calm Calm - N/A   Overcast
4:53 AM 63.0 °F 62.1 °F 97% 30.14 in 5.0 mi ESE 3.5 mph - N/A   Overcast
5:37 AM 63.0 °F 62.1 °F 97% 30.15 in 5.0 mi NNW 3.5 mph - N/A   Overcast
5:53 AM 63.0 °F 63.0 °F 100% 30.14 in 6.0 mi Calm Calm - N/A   Overcast
6:17 AM 63.0 °F 62.1 °F 97% 30.15 in 6.0 mi Calm Calm - N/A   Overcast
6:51 AM 62.6 °F 62.6 °F 100% 30.16 in 5.0 mi Calm Calm - 0.00 in Rain Light Rain
6:53 AM 63.0 °F 63.0 °F 100% 30.16 in 5.0 mi SSW 3.5 mph - 0.00 in Rain Light Rain
7:01 AM 63.0 °F 63.0 °F 100% 30.16 in 5.0 mi Calm Calm - 0.00 in   Overcast
7:53 AM 63.0 °F 62.1 °F 97% 30.15 in 5.0 mi West 3.5 mph - 0.00 in   Overcast
8:40 AM 63.0 °F 62.1 °F 97% 30.16 in 6.0 mi WSW 3.5 mph - N/A   Overcast
8:53 AM 64.0 °F 62.1 °F 93% 30.15 in 7.0 mi West 4.6 mph - N/A   Overcast
9:46 AM 64.0 °F 61.0 °F 90% 30.13 in 8.0 mi Calm Calm - 0.00 in Rain Light Rain
9:53 AM 64.0 °F 61.0 °F 90% 30.12 in 8.0 mi ESE 3.5 mph - 0.00 in Rain Light Rain
10:21 AM 64.0 °F 61.0 °F 90% 30.13 in 9.0 mi Calm Calm - 0.00 in   Mostly Cloudy
10:53 AM 64.9 °F 60.1 °F 84% 30.14 in 10.0 mi West 8.1 mph - 0.00 in   Overcast
11:12 AM 64.9 °F 60.1 °F 84% 30.13 in 10.0 mi WNW 8.1 mph - 0.00 in Rain Light Rain
11:53 AM 64.9 °F 60.1 °F 84% 30.12 in 7.0 mi West 3.5 mph - 0.00 in Rain Light Rain
12:53 PM 64.9 °F 60.1 °F 84% 30.13 in 10.0 mi West 4.6 mph - 0.00 in   Overcast
1:37 PM 64.9 °F 57.9 °F 78% 30.12 in 10.0 mi WNW 4.6 mph - N/A   Overcast
1:53 PM 66.0 °F 59.0 °F 78% 30.11 in 10.0 mi West 3.5 mph - N/A   Overcast
2:53 PM 66.9 °F 57.9 °F 73% 30.10 in 10.0 mi West 5.8 mph - N/A   Clear
3:53 PM 69.1 °F 57.9 °F 68% 30.08 in 10.0 mi Calm Calm - N/A   Clear
4:53 PM 71.1 °F 55.9 °F 59% 30.07 in 10.0 mi Calm Calm - N/A   Clear
6:53 PM 61.0 °F 57.0 °F 87% 30.06 in 10.0 mi ENE 4.6 mph - N/A   Clear
7:53 PM 57.9 °F 55.0 °F 90% 30.07 in 10.0 mi Calm Calm - N/A   Clear
9:53 PM 57.0 °F 55.0 °F 93% 30.06 in 10.0 mi ESE 6.9 mph - N/A   Clear
10:53 PM 57.0 °F 55.0 °F 93% 30.06 in 8.0 mi Calm Calm - N/A   Overcast
11:53 PM 54.0 °F 53.1 °F 97% 30.06 in 7.0 mi Calm Calm - N/A   Scattered Clouds